| time (UTC) | temp C | wind direction | speed KPH | gust KPH | rain 1hr cm | rain 24hr cm | rain mn cm | humidity % | barometer mb |
| 20260510123521 | 17 | 319 | 0.0 | 1.6 | 0.00 | 0.00 | 0.00 | 80 | 1016.9 |
| 20260510123356 | 15 | 0.0 | 1.6 | 0.00 | 0.00 | 0.00 | 83 | 1016.4 | |
| 20260510115544 | 15 | 329 | 0.0 | 1.6 | 0.00 | 0.00 | 0.00 | 87 | 1015.9 |
| 20260510114550 | 14 | 0.0 | 0.0 | 0.00 | 0.00 | 0.00 | 89 | 1015.7 | |
| 20260510113518 | 13 | 0.0 | 0.0 | 0.00 | 0.00 | 0.00 | 90 | 1015.6 | |
| 20260510113409 | 13 | 0.0 | 0.0 | 0.00 | 0.00 | 0.00 | 89 | 1015.2 | |
| 20260510105541 | 13 | 0.0 | 1.6 | 0.00 | 0.00 | 0.00 | 88 | 1015.3 | |
| 20260510104527 | 13 | 0.0 | 0.0 | 0.00 | 0.00 | 0.00 | 86 | 1015.0 | |
| 20260510103530 | 14 | 0.0 | 0.0 | 0.00 | 0.00 | 0.00 | 85 | 1014.9 | |
| 20260510102518 | 14 | 43 | 0.0 | 1.6 | 0.00 | 0.00 | 0.00 | 85 | 1014.9 |
| 20260510101523 | 15 | 18 | 0.0 | 1.6 | 0.00 | 0.00 | 0.00 | 84 | 1015.0 |
| 20260510100528 | 15 | 0.0 | 0.0 | 0.00 | 0.00 | 0.00 | 85 | 1014.9 | |
| 20260510095516 | 15 | 0.0 | 0.0 | 0.00 | 0.00 | 0.00 | 85 | 1015.0 | |
| 20260510094522 | 15 | 359 | 0.0 | 1.6 | 0.00 | 0.00 | 0.00 | 84 | 1015.0 |
| 20260510093526 | 15 | 312 | 0.0 | 1.6 | 0.00 | 0.00 | 0.00 | 84 | 1014.9 |
| 20260510092530 | 14 | 317 | 0.0 | 1.6 | 0.00 | 0.00 | 0.00 | 83 | 1014.9 |
| 20260510091536 | 14 | 326 | 0.0 | 1.6 | 0.00 | 0.00 | 0.00 | 84 | 1014.7 |
| 20260510090541 | 14 | 40 | 0.0 | 1.6 | 0.00 | 0.00 | 0.00 | 82 | 1014.9 |
| 20260510085528 | 15 | 62 | 0.0 | 1.6 | 0.00 | 0.00 | 0.00 | 79 | 1014.8 |
| 20260510084555 | 15 | 30 | 0.0 | 1.6 | 0.00 | 0.00 | 0.00 | 76 | 1014.8 |
| 20260510083559 | 16 | 1 | 0.0 | 1.6 | 0.00 | 0.00 | 0.00 | 71 | 1014.8 |
| 20260510083437 | 15 | 301 | 1.6 | 1.6 | 0.00 | 0.00 | 0.00 | 74 | 1013.8 |
| 20260510075524 | 16 | 305 | 0.0 | 1.6 | 0.00 | 0.00 | 0.00 | 73 | 1013.7 |
| 20260510074529 | 16 | 290 | 1.6 | 1.6 | 0.00 | 0.00 | 0.00 | 73 | 1013.6 |
| 20260510073518 | 16 | 306 | 0.0 | 1.6 | 0.00 | 0.00 | 0.00 | 70 | 1013.6 |
| 20260510072539 | 17 | 306 | 0.0 | 1.6 | 0.00 | 0.00 | 0.00 | 69 | 1013.4 |
| 20260510071527 | 17 | 213 | 1.6 | 3.2 | 0.00 | 0.05 | 0.00 | 69 | 1013.6 |
| 20260510070553 | 17 | 227 | 0.0 | 1.6 | 0.00 | 0.05 | 0.00 | 70 | 1013.7 |
| 20260510065538 | 17 | 303 | 0.0 | 1.6 | 0.00 | 0.10 | 0.00 | 69 | 1013.8 |
| 20260510064526 | 17 | 310 | 0.0 | 1.6 | 0.00 | 0.10 | 0.00 | 68 | 1013.7 |
| 20260510063530 | 17 | 270 | 1.6 | 3.2 | 0.00 | 0.10 | 0.00 | 69 | 1014.0 |
| 20260510063426 | 18 | 316 | 0.0 | 1.6 | 0.00 | 0.10 | 0.00 | 68 | 1013.5 |
| 20260510055516 | 18 | 275 | 0.0 | 3.2 | 0.00 | 0.10 | 0.00 | 67 | 1013.6 |
| 20260510054521 | 17 | 244 | 0.0 | 3.2 | 0.00 | 0.10 | 0.00 | 69 | 1013.7 |
| 20260510053526 | 17 | 0.0 | 0.0 | 0.00 | 0.10 | 0.00 | 70 | 1013.4 | |
| 20260510053401 | 16 | 312 | 0.0 | 1.6 | 0.00 | 0.10 | 0.00 | 77 | 1013.2 |
| 20260510045529 | 16 | 0.0 | 0.0 | 0.00 | 0.10 | 0.10 | 77 | 1013.2 | |
| 20260510044537 | 16 | 327 | 0.0 | 1.6 | 0.00 | 0.10 | 0.10 | 78 | 1013.2 |
| 20260510043542 | 15 | 0.0 | 0.0 | 0.00 | 0.10 | 0.10 | 78 | 1013.4 | |
| 20260510043357 | 16 | 0.0 | 0.0 | 0.00 | 0.10 | 0.10 | 76 | 1013.1 | |
| 20260510035525 | 16 | 0.0 | 0.0 | 0.00 | 0.10 | 0.10 | 79 | 1013.1 | |
| 20260510034530 | 16 | 0.0 | 0.0 | 0.00 | 0.10 | 0.10 | 80 | 1013.1 | |
| 20260510033518 | 16 | 0.0 | 0.0 | 0.00 | 0.10 | 0.10 | 82 | 1013.1 | |
| 20260510033410 | 17 | 0.0 | 0.0 | 0.00 | 0.10 | 0.10 | 73 | 1012.8 | |
| 20260510025521 | 18 | 0.0 | 0.0 | 0.00 | 0.10 | 0.10 | 71 | 1013.0 | |
| 20260510024546 | 18 | 0.0 | 0.0 | 0.00 | 0.10 | 0.10 | 71 | 1012.8 | |
| 20260510023530 | 17 | 0.0 | 0.0 | 0.00 | 0.10 | 0.10 | 73 | 1012.9 | |
| 20260510023406 | 17 | 0.0 | 0.0 | 0.00 | 0.10 | 0.10 | 81 | 1012.5 | |
| 20260510015518 | 17 | 0.0 | 0.0 | 0.00 | 0.10 | 0.10 | 80 | 1012.4 | |
| 20260510014522 | 17 | 0.0 | 0.0 | 0.00 | 0.10 | 0.10 | 78 | 1012.3 | |
| 20260510013526 | 18 | 0.0 | 0.0 | 0.00 | 0.10 | 0.10 | 76 | 1012.3 | |
| 20260510013402 | 21 | 0.0 | 0.0 | 0.00 | 0.10 | 0.10 | 65 | 1011.7 | |
| 20260510005529 | 22 | 0.0 | 0.0 | 0.00 | 0.10 | 0.10 | 58 | 1011.5 | |
| 20260510004517 | 23 | 0.0 | 0.0 | 0.00 | 0.10 | 0.10 | 54 | 1011.5 | |
| 20260510003522 | 23 | 0.0 | 0.0 | 0.00 | 0.10 | 0.10 | 52 | 1011.2 | |
| 20260510003357 | 25 | 219 | 0.0 | 3.2 | 0.00 | 0.10 | 0.10 | 47 | 1011.0 |
| 20260509235525 | 25 | 204 | 1.6 | 4.8 | 0.00 | 0.10 | 0.10 | 45 | 1011.0 |
| 20260509234530 | 25 | 224 | 1.6 | 4.8 | 0.00 | 0.10 | 0.10 | 44 | 1010.9 |
| 20260509233518 | 26 | 206 | 3.2 | 4.8 | 0.00 | 0.10 | 0.10 | 43 | 1011.0 |
| 20260509233413 | 26 | 257 | 4.8 | 9.7 | 0.00 | 0.10 | 0.10 | 40 | 1011.0 |
| 20260509225541 | 26 | 187 | 4.8 | 11.3 | 0.00 | 0.10 | 0.10 | 40 | 1011.0 |
| 20260509224526 | 26 | 222 | 4.8 | 11.3 | 0.00 | 0.10 | 0.10 | 42 | 1011.0 |
| 20260509223531 | 26 | 149 | 3.2 | 4.8 | 0.00 | 0.10 | 0.10 | 43 | 1010.7 |
| 20260509223406 | 27 | 235 | 3.2 | 11.3 | 0.00 | 0.10 | 0.10 | 40 | 1011.0 |
| 20260509215516 | 27 | 262 | 4.8 | 9.7 | 0.00 | 0.10 | 0.10 | 40 | 1010.8 |
| 20260509214521 | 27 | 265 | 3.2 | 12.9 | 0.00 | 0.10 | 0.10 | 38 | 1010.8 |
| 20260509213527 | 28 | 295 | 1.6 | 3.2 | 0.00 | 0.10 | 0.10 | 36 | 1010.8 |
| 20260509213401 | 27 | 298 | 1.6 | 6.4 | 0.00 | 0.10 | 0.10 | 36 | 1010.8 |
| 20260509205529 | 27 | 276 | 4.8 | 12.9 | 0.00 | 0.10 | 0.10 | 38 | 1010.9 |
| 20260509204518 | 27 | 281 | 4.8 | 11.3 | 0.00 | 0.10 | 0.10 | 40 | 1011.0 |
| 20260509203522 | 27 | 256 | 3.2 | 6.4 | 0.00 | 0.10 | 0.10 | 46 | 1011.1 |
| 20260509203409 | 27 | 251 | 1.6 | 4.8 | 0.00 | 0.10 | 0.10 | 43 | 1011.1 |
| 20260509202328 | 26 | 271 | 3.2 | 11.3 | 0.00 | 0.10 | 0.10 | 45 | 1011.3 |
| 20260509193038 | 26 | 275 | 4.8 | 11.3 | 0.00 | 0.10 | 0.10 | 51 | 1011.7 |
| 20260509192104 | 25 | 302 | 3.2 | 4.8 | 0.00 | 0.10 | 0.10 | 54 | 1011.7 |
| 20260509191028 | 26 | 248 | 3.2 | 6.4 | 0.00 | 0.10 | 0.10 | 55 | 1011.7 |
| 20260509190033 | 25 | 263 | 3.2 | 9.7 | 0.00 | 0.10 | 0.10 | 54 | 1011.9 |
| 20260509185021 | 25 | 286 | 3.2 | 4.8 | 0.00 | 0.10 | 0.10 | 55 | 1012.0 |
| 20260509184047 | 25 | 272 | 4.8 | 9.7 | 0.00 | 0.10 | 0.10 | 58 | 1011.9 |
| 20260509183031 | 24 | 268 | 1.6 | 9.7 | 0.00 | 0.10 | 0.10 | 61 | 1011.8 |
| 20260509182019 | 24 | 269 | 3.2 | 11.3 | 0.00 | 0.10 | 0.10 | 60 | 1011.9 |
| 20260509181024 | 23 | 283 | 1.6 | 4.8 | 0.00 | 0.10 | 0.10 | 60 | 1011.9 |
| 20260509180028 | 23 | 259 | 4.8 | 12.9 | 0.00 | 0.10 | 0.10 | 61 | 1012.1 |
| 20260509175017 | 23 | 256 | 6.4 | 11.3 | 0.00 | 0.10 | 0.10 | 64 | 1012.2 |
| 20260509174021 | 23 | 255 | 3.2 | 9.7 | 0.00 | 0.10 | 0.10 | 67 | 1012.1 |
| 20260509173027 | 23 | 299 | 3.2 | 11.3 | 0.00 | 0.10 | 0.10 | 63 | 1012.1 |
| 20260509172031 | 23 | 64 | 1.6 | 6.4 | 0.00 | 0.10 | 0.10 | 64 | 1012.3 |
| 20260509171020 | 22 | 258 | 1.6 | 6.4 | 0.00 | 0.10 | 0.10 | 66 | 1012.2 |
| 20260509170025 | 22 | 133 | 3.2 | 11.3 | 0.00 | 0.10 | 0.10 | 70 | 1012.3 |
| 20260509165030 | 22 | 262 | 4.8 | 12.9 | 0.00 | 0.10 | 0.10 | 70 | 1012.3 |
| 20260509164018 | 22 | 257 | 3.2 | 11.3 | 0.00 | 0.10 | 0.10 | 71 | 1012.4 |
| 20260509163044 | 22 | 275 | 4.8 | 16.1 | 0.00 | 0.10 | 0.10 | 71 | 1012.3 |
| 20260509162031 | 21 | 244 | 3.2 | 9.7 | 0.00 | 0.10 | 0.10 | 71 | 1012.4 |
| 20260509161033 | 22 | 253 | 3.2 | 4.8 | 0.00 | 0.10 | 0.10 | 70 | 1012.6 |
| 20260509160020 | 22 | 320 | 1.6 | 3.2 | 0.00 | 0.10 | 0.10 | 71 | 1012.3 |
| 20260509155045 | 21 | 302 | 3.2 | 9.7 | 0.00 | 0.10 | 0.10 | 74 | 1012.2 |
| 20260509154030 | 20 | 286 | 1.6 | 9.7 | 0.00 | 0.10 | 0.10 | 76 | 1012.0 |
| 20260509153018 | 20 | 291 | 1.6 | 9.7 | 0.00 | 0.10 | 0.10 | 75 | 1012.1 |
| 20260509152023 | 20 | 270 | 4.8 | 9.7 | 0.00 | 0.10 | 0.10 | 79 | 1012.2 |
| 20260509151028 | 19 | 79 | 1.6 | 3.2 | 0.00 | 0.10 | 0.10 | 79 | 1012.1 |
| 20260509150017 | 19 | 271 | 3.2 | 6.4 | 0.00 | 0.10 | 0.10 | 81 | 1011.9 |
| 20260509145021 | 19 | 250 | 1.6 | 6.4 | 0.00 | 0.10 | 0.10 | 83 | 1011.9 |
| 20260509144026 | 18 | 247 | 3.2 | 11.3 | 0.00 | 0.10 | 0.10 | 85 | 1011.9 |
| 20260509143031 | 19 | 271 | 1.6 | 6.4 | 0.00 | 0.10 | 0.10 | 84 | 1011.8 |
| 20260509142019 | 18 | 268 | 1.6 | 3.2 | 0.00 | 0.10 | 0.10 | 84 | 1011.6 |
| 20260509141044 | 18 | 298 | 1.6 | 4.8 | 0.00 | 0.10 | 0.10 | 86 | 1011.5 |
| 20260509140029 | 17 | 296 | 1.6 | 4.8 | 0.00 | 0.10 | 0.10 | 89 | 1011.5 |
| 20260509135017 | 17 | 256 | 3.2 | 6.4 | 0.00 | 0.10 | 0.10 | 92 | 1011.3 |
| 20260509134022 | 16 | 315 | 3.2 | 6.4 | 0.00 | 0.10 | 0.10 | 96 | 1011.4 |
| 20260509133027 | 15 | 280 | 3.2 | 4.8 | 0.00 | 0.10 | 0.10 | 99 | 1011.2 |
| 20260509132032 | 15 | 277 | 1.6 | 3.2 | 0.00 | 0.10 | 0.10 | 99 | 1011.1 |
| 20260509131040 | 15 | 338 | 1.6 | 3.2 | 0.00 | 0.10 | 0.10 | 99 | 1011.3 |
| 20260509130025 | 14 | 318 | 1.6 | 3.2 | 0.00 | 0.10 | 0.10 | 99 | 1010.9 |
| 20260509125030 | 14 | 293 | 1.6 | 3.2 | 0.00 | 0.10 | 0.10 | 99 | 1011.0 |
| 20260509124038 | 13 | 293 | 3.2 | 3.2 | 0.00 | 0.10 | 0.10 | 99 | 1010.9 |